Location: Rowland
(34.5359°N, 79.2929°W)
Time: 16:20:44
(UTC+00:00)

A-11 Canister half - Pass Details

Date: 04 October 2022
Orbit: 1515 x 1684 km, 47.2° (Epoch: 06 December)

Event Time Altitude Azimuth Distance (km) Brightness Sun altitude
Exits shadow 09:37:50 30° 255° (WSW) 2,447 9.5 -20.6°
Maximum altitude 09:39:58 33° 231° (SW) 2,322 9.5 -20.2°
Drops below altitude 10° 09:47:55 10° 171° (S) 3,685 11.0 -18.5°
Sets 09:51:22 0° 162° (SSE) 4,681 11.7 -17.8°
